Printer-friendly version

IAU Minor Planet Center

Minor Planet Center

MPEC 2005-L48 : 2005 LW19

The following Minor Planet Electronic Circular may be linked-to from your own Web pages, but must not otherwise be redistributed electronically.


Read MPEC 2005-L47 Read MPEC 2005-L49


M.P.E.C. 2005-L48                                Issued 2005 June 11, 22:36 UT

     The Minor Planet Electronic Circulars contain information on unusual
         minor planets and routine data on comets.  They are published
   on behalf of Commission 20 of the International Astronomical Union by the
          Minor Planet Center, Smithsonian Astrophysical Observatory,
                          Cambridge, MA 02138, U.S.A.

                  Supported in part by the Brinson Foundation
             Prepared using the Tamkin Foundation Computer Network

                              MPC@CFA.HARVARD.EDU
          URL http://cfa-www.harvard.edu/iau/mpc.html  ISSN 1523-6714

                                   2005 LW19

Observations:
     K05L19W* C2005 06 09.42867 21 20 33.41 -18 45 46.5          18.5 V EL048703
     K05L19W  C2005 06 09.43468 21 20 34.38 -18 45 24.6          18.5 V EL048703
     K05L19W  C2005 06 09.44072 21 20 35.27 -18 45 03.3          18.5 V EL048703
     K05L19W  C2005 06 09.44675 21 20 36.33 -18 44 44.0          18.5 V EL048703
     K05L19W  C2005 06 09.79540 21 21 35.14 -18 23 59.1          18.9 R EL048E12
     K05L19W  C2005 06 09.79629 21 21 35.26 -18 23 55.8          19.6 R EL048E12
     K05L19W  C2005 06 09.79715 21 21 35.44 -18 23 52.9          19.3 R EL048E12
     K05L19W  C2005 06 09.79803 21 21 35.52 -18 23 50.2          19.6 R EL048E12
     K05L19W  C2005 06 10.28886 21 22 59.10 -17 55 30.9          19.1 R EL048I77
     K05L19W  C2005 06 10.29405 21 22 59.86 -17 55 13.2          18.7 R EL048I77
     K05L19W  C2005 06 10.30131 21 23 01.04 -17 54 48.3          18.8 R EL048I77
     K05L19W  C2005 06 10.38998 21 23 17.05 -17 50 05.9          18.8 V EL048703
     K05L19W  C2005 06 10.39652 21 23 18.06 -17 49 42.2          18.4 V EL048703
     K05L19W  C2005 06 10.40308 21 23 19.06 -17 49 20.5          18.7 V EL048703
     K05L19W  C2005 06 10.41199 21 23 20.43 -17 48 49.5          18.9 V EL048703
     K05L19W 2C2005 06 11.36534 21 25 57.53 -16 53 29.5          18.5 R EL048H06
     K05L19W  C2005 06 11.36895 21 25 58.32 -16 53 14.7          18.2 R EL048854
     K05L19W 2C2005 06 11.37097 21 25 58.48 -16 53 09.6          18.7 R EL048H06
     K05L19W  C2005 06 11.37188 21 25 58.80 -16 53 04.2          18.2 R EL048854
     K05L19W  C2005 06 11.37480 21 25 59.19 -16 52 54.3          18.2 R EL048854
     K05L19W 2C2005 06 11.37587 21 25 59.08 -16 52 51.2          18.0 R EL048H06
     K05L19W  C2005 06 11.38991 21 26 01.46 -16 52 03.1          18.9 V EL048703
     K05L19W  C2005 06 11.39815 21 26 02.68 -16 51 33.6          18.6 V EL048703
     K05L19W  C2005 06 11.40635 21 26 03.91 -16 51 05.2          18.9 V EL048703
     K05L19W  C2005 06 11.41464 21 26 05.20 -16 50 36.6          18.8 V EL048703

Observer details:
703 Catalina Sky Survey.  Observers A. Grauer, E. J. Christensen.  Measurers
    E. C. Beshore, C. M. Casey, E. J. Christensen, G. J. Garradd, A. D. Grauer,
    R. E. Hill, S. M. Larson, R. H. McNaught.  0.68-m Schmidt + CCD.
854 Sabino Canyon Observatory, Tucson.  Observer J. E. McGaha.  0.36-m f/10.0
    Schmidt-Cassegrain + CCD.
E12 Siding Spring Survey.  Observer G. J. Garradd.  Measurers E. C. Beshore,
    C. M. Casey, E. J. Christensen, G. J. Garradd, A. D. Grauer, R. E. Hill,
    S. M. Larson, R. H. McNaught.  0.5-m Uppsala Schmidt + CCD.
H06 New Mexico Skies Observatory.  Observer R. Hutsebaut.  0.25-m reflector
    + CCD.
I77 CEAMIG-REA Observatory, Belo Horizonte.  Observers C. Jacques, E. Pimentel.
    Measurer C. Jacques.  0.30-m f/3.0 Schmidt-Cassegrain + CCD.

Orbital elements:
2005 LW19
Epoch 2005 May 30.0 TT = JDT 2453520.5                  MPC
M 355.72472              (2000.0)            P               Q
n   0.30635753     Peri.  359.30464     +0.04452240     +0.98503515
a   2.1792999      Node   273.23742     -0.91576533     -0.02636511
e   0.4632663      Incl.    9.60007     -0.39923881     +0.17032509
P   3.22           H   19.8           G   0.15
From 25 observations 2005 June 9-11.

Ephemeris:
2005 LW19                a,e,i = 2.18, 0.46, 10                  q = 1.1697
Date    TT    R. A. (2000) Decl.     Delta      r     Elong.  Phase     V
2005 06 09    21 19.30   -19 10.1    0.256    1.170   121.8    47.5    19.0
2005 06 19    21 43.97   -09 32.2    0.252    1.172   122.6    46.9    18.9
2005 06 29    22 00.21   -00 36.1    0.258    1.182   124.6    45.0    18.9
2005 07 09    22 08.71   +06 50.4    0.271    1.203   128.0    41.8    19.0
2005 07 19    22 10.57   +12 24.0    0.291    1.232   132.7    37.3    19.1
2005 07 29    22 07.33   +16 00.6    0.316    1.268   138.2    32.3    19.2
2005 08 08    22 00.87   +17 45.2    0.348    1.312   144.0    27.1    19.3
2005 08 18    21 53.65   +17 53.9    0.388    1.360   148.9    22.6    19.5
2005 08 28    21 47.83   +16 52.4    0.439    1.412   151.7    19.8    19.8
2005 09 07    21 44.79   +15 08.4    0.502    1.468   151.3    19.3    20.1
2005 09 17    21 45.21   +13 08.7    0.578    1.526   147.9    20.5    20.5
2005 09 27    21 48.99   +11 13.1    0.667    1.585   142.7    22.6    21.0
2005 10 07    21 55.70   +09 33.0    0.770    1.645   136.5    24.7    21.5
2005 10 17    22 04.86   +08 14.9    0.886    1.706   129.9    26.6    21.9

Timothy B. Spahr             (C) Copyright 2005 MPC           M.P.E.C. 2005-L48

Read MPEC 2005-L47 Read MPEC 2005-L49


Our Web policy. Index to the CBAT/MPC/ICQ pages.


Valid HTML 4.01!